Location: Nitra
(0.0000°N, 18.0833°E)
Time: 08:19:54
(UTC+01:00)

Daily predictions for brighter satellites

Satellite Brightness Start Highest point End
(mag) Time Altitude Azimuth Time Altitude Azimuth Time Altitude Azimuth
OAO 3 Copernicus 4.4 17:52:59 10° SW 17:58:03 87° NW 18:03:07 10° NE
Cosmos 1461 2.8 17:56:35 10° N 18:00:16 49° ENE 18:03:54 10° SE
SMAP 4.2 17:59:46 10° S 18:04:16 50° WSW 18:08:45 10° NNW
OAO 2 Rocket 3.7 18:00:36 10° WSW 18:05:35 63° NW 18:10:39 10° NE
Cosmos 2151 4.2 18:07:46 10° NNW 18:11:51 46° W 18:15:56 10° SSW
Cosmos 1371 Rocket 4.0 18:12:05 10° SSW 18:17:15 90° W 18:22:26 10° NNE
Sylda 4400 3.7 18:17:31 10° NW 18:19:44 22° N 18:20:58 16° NE
Cosmos 1602 3.5 18:16:08 10° N 18:19:51 75° E 18:23:35 10° S
Cosmos 2026 Rocket 4.2 18:15:20 10° S 18:21:26 76° W 18:27:35 10° N
ARIANE 5 R/B 1.9 18:19:57 10° W 18:22:16 61° N 18:28:04 13° E
Cosmos 2237 Rocket 4.3 18:18:12 10° NW 18:23:07 32° WSW 18:28:03 10° SSW
Meteor PRIRODA 4.0 18:20:38 10° SSE 18:23:50 35° ENE 18:27:00 10° N
SWIFT 2.6 18:24:33 10° WNW 18:28:33 62° SSW 18:32:32 10° ESE
Cosmos 1269 Rocket 4.0 18:24:27 10° N 18:29:41 67° ENE 18:34:56 10° SSE
Cosmos 1844 Rocket 4.0 18:25:59 10° SW 18:31:08 39° WNW 18:36:17 10° N
Meteor 1-20 Rocket 4.3 18:29:26 10° N 18:35:00 59° E 18:40:40 10° SSE
ATLAS 2A CENTAUR R/B 3.5 18:32:54 10° NW 18:36:16 46° NE 18:47:06 10° ESE
Ariane 42P Rocket 2.3 18:33:57 10° WSW 18:36:43 29° S 18:37:25 21° SE
Cosmos 1515 3.4 18:34:37 10° S 18:38:12 82° E 18:41:46 10° N
FALCON 9 R/B 2.7 18:37:20 10° SSW 18:39:42 16° SSE 18:40:44 13° SE
BLOCK DM-SL R/B 2.9 18:35:36 10° W 18:39:46 70° N 18:42:49 22° ENE
Cosmos 1666 4.4 18:36:41 10° NNW 18:39:52 32° W 18:43:05 10° SSW
ARIANE 44LP R/B 2.6 18:40:40 10° W 18:44:59 33° NNW 18:45:35 29° NNE
Gbstr 26 Del rocket 4.2 18:44:01 10° SSW 18:49:11 34° SE 18:50:48 27° E
Ariane H10+ 2.8 18:40:19 10° W 18:50:09 68° N 18:52:05 31° ENE
BREEZE-M DEB (TANK) 3.7 18:47:11 10° NW 18:51:19 46° SW 18:54:10 10° SSE
ARIANE 44L R/B 3.3 18:53:38 10° NW 18:56:16 37° NNE 18:57:27 32° NE
NOSS 3-4 (A) 4.3 18:48:34 10° N 18:56:29 52° ENE 19:04:49 10° SE
NOSS 3-4 (C) 4.3 18:48:41 10° N 18:56:30 52° ENE 19:04:46 10° SE
Meteor 1-29 3.2 18:56:34 10° S 18:59:12 50° WSW 19:00:40 22° NNW
CZ-4B DEB 4.2 18:58:26 10° SSE 19:03:48 55° ENE 19:09:10 10° N
NOAA 15 4.5 19:03:36 10° SSE 19:08:55 80° ENE 19:14:12 10° N
YAOGAN 1 2.5 19:05:29 10° S 19:09:47 80° WSW 19:14:04 10° NNW
Yuri Rocket 2.8 19:06:22 10° NW 19:10:29 75° NNE 19:10:52 68° ENE
Cosmos 1655 Rocket 4.2 19:07:22 10° SSE 19:13:22 48° E 19:14:16 45° ENE
SeaSat 1 2.7 19:13:44 47° ESE 19:13:48 47° ESE 19:18:30 10° S
PAYLOAD B 4.3 19:08:33 10° SSE 19:13:39 48° E 19:13:39 48° E
SL-16 R/B 3.4 19:10:37 10° NW 19:15:52 41° WSW 19:21:10 10° S
Cosmos 1110 Rocket 3.8 19:19:26 10° SSW 19:24:37 90° SE 19:25:21 67° NNE
Cosmos 1140 Rocket 3.9 19:27:35 46° SSE 19:27:35 46° SSE 19:31:14 10° SSE
ARIANE 5 R/B 3.2 19:32:04 10° WSW 19:34:23 51° SSW 19:34:23 51° SSW
Landsat 7 4.3 19:32:25 10° S 19:35:57 51° S 19:35:57 51° S
CZ-4B R/B 4.4 19:47:19 10° SSE 19:50:12 32° SSE 19:50:12 32° SSE
Cosmos 1943 Rocket 4.5 19:52:20 10° SSE 19:52:55 12° SSE 19:52:55 12° SSE
USA 267 4.0 20:06:07 40° SSE 20:06:07 40° SSE 20:10:38 10° SSW
Cosmos 2278 Rocket 3.8 20:17:40 10° SSW 20:20:35 30° SW 20:20:35 30° SW
Milstar 3 Cent rocket 4.2 20:35:25 10° SW 20:53:57 64° S 20:53:57 64° S
